Precipitable_Water
0.16 0.17 0.18 0.17 0.17 0.20 0.20 0.20 0.16 0.13 0.15 0.16 0.21 0.24 0.25 0.26 0.27 0.28 0.28 0.27 0.29 0.31 0.32 0.34 0.39 0.45 0.49 0.53 0.57 0.57 0.52 0.48 0.46 0.44 0.43 0.41 0.39 0.37 0.34 0.30 0.26 0.24 0.22 0.21
0.16 0.20 0.21 0.19 0.21 0.22 0.22 0.22 0.22 0.22 0.20 0.27 0.27 0.28 0.26 0.26 0.27 0.28 0.29 0.29 0.31 0.32 0.32 0.34 0.39 0.44 0.48 0.51 0.56 0.58 0.54 0.51 0.49 0.46 0.45 0.43 0.41 0.39 0.36 0.31 0.27 0.24 0.22 0.21
0.14 0.21 0.19 0.14 0.16 0.19 0.21 0.24 0.23 0.18 0.21 0.28 0.26 0.28 0.28 0.29 0.28 0.29 0.31 0.33 0.33 0.32 0.33 0.37 0.42 0.46 0.48 0.53 0.58 0.56 0.55 0.55 0.50 0.46 0.45 0.43 0.42 0.40 0.36 0.31 0.27 0.23 0.22 0.23
0.17 0.18 0.10 0.15 0.23 0.23 0.21 0.25 0.28 0.28 0.28 0.30 0.32 0.34 0.34 0.35 0.31 0.30 0.34 0.35 0.35 0.36 0.38 0.40 0.42 0.43 0.47 0.53 0.57 0.56 0.55 0.55 0.51 0.46 0.45 0.44 0.42 0.40 0.36 0.31 0.24 0.22 0.24 0.26
0.16 0.17 0.20 0.17 0.22 0.24 0.24 0.30 0.32 0.31 0.33 0.34 0.38 0.38 0.34 0.35 0.35 0.33 0.35 0.37 0.39 0.42 0.44 0.43 0.41 0.42 0.43 0.45 0.50 0.56 0.55 0.54 0.52 0.48 0.46 0.45 0.43 0.40 0.36 0.28 0.22 0.25 0.27 0.26
0.25 0.20 0.19 0.27 0.38 0.40 0.38 0.31 0.38 0.40 0.41 0.41 0.42 0.32 0.35 0.37 0.36 0.36 0.37 0.37 0.39 0.43 0.45 0.44 0.41 0.41 0.40 0.40 0.45 0.50 0.55 0.55 0.53 0.48 0.48 0.46 0.43 0.39 0.34 0.24 0.25 0.28 0.27 0.26
0.36 0.32 0.33 0.42 0.43 0.47 0.31 0.31 0.40 0.41 0.43 0.43 0.39 0.39 0.40 0.40 0.39 0.40 0.39 0.39 0.43 0.45 0.44 0.44 0.46 0.43 0.39 0.40 0.42 0.52 0.56 0.55 0.52 0.50 0.50 0.48 0.44 0.40 0.29 0.24 0.27 0.27 0.26 0.25
0.39 0.34 0.30 0.46 0.45 0.36 0.39 0.43 0.43 0.43 0.45 0.44 0.44 0.44 0.44 0.42 0.41 0.40 0.38 0.39 0.41 0.42 0.44 0.46 0.47 0.44 0.40 0.40 0.46 0.51 0.52 0.51 0.51 0.51 0.51 0.49 0.43 0.37 0.27 0.27 0.26 0.26 0.25 0.24
0.38 0.35 0.43 0.45 0.42 0.45 0.46 0.43 0.44 0.44 0.45 0.45 0.44 0.43 0.45 0.44 0.44 0.44 0.43 0.43 0.43 0.43 0.44 0.46 0.48 0.47 0.43 0.43 0.46 0.47 0.48 0.49 0.50 0.51 0.50 0.46 0.43 0.33 0.26 0.28 0.27 0.26 0.25 0.24
0.35 0.38 0.40 0.42 0.43 0.45 0.46 0.44 0.46 0.46 0.45 0.44 0.40 0.39 0.41 0.44 0.45 0.45 0.46 0.45 0.46 0.46 0.44 0.43 0.46 0.46 0.46 0.47 0.47 0.47 0.48 0.49 0.50 0.48 0.48 0.45 0.43 0.30 0.28 0.29 0.28 0.27 0.26 0.24
0.36 0.38 0.40 0.41 0.43 0.45 0.43 0.43 0.43 0.44 0.44 0.42 0.41 0.42 0.44 0.44 0.46 0.47 0.47 0.48 0.48 0.47 0.46 0.44 0.45 0.44 0.45 0.46 0.48 0.47 0.48 0.48 0.48 0.47 0.48 0.45 0.40 0.28 0.29 0.31 0.30 0.28 0.27 0.27
0.34 0.41 0.41 0.42 0.42 0.39 0.39 0.39 0.41 0.41 0.42 0.44 0.44 0.44 0.46 0.45 0.47 0.48 0.48 0.49 0.47 0.45 0.42 0.41 0.43 0.43 0.44 0.45 0.46 0.47 0.46 0.46 0.46 0.47 0.48 0.47 0.35 0.27 0.34 0.34 0.34 0.35 0.34 0.33
0.42 0.48 0.42 0.39 0.42 0.44 0.42 0.43 0.45 0.46 0.45 0.43 0.43 0.43 0.42 0.41 0.41 0.41 0.40 0.39 0.38 0.38 0.39 0.40 0.40 0.41 0.44 0.45 0.47 0.46 0.46 0.47 0.49 0.49 0.49 0.45 0.29 0.27 0.30 0.32 0.33 0.34 0.34 0.33
0.47 0.44 0.43 0.46 0.45 0.49 0.50 0.50 0.49 0.46 0.45 0.43 0.41 0.39 0.36 0.34 0.35 0.35 0.36 0.38 0.39 0.40 0.40 0.40 0.39 0.39 0.46 0.49 0.48 0.48 0.50 0.51 0.50 0.51 0.50 0.38 0.26 0.29 0.32 0.30 0.29 0.29 0.32 0.31
0.42 0.44 0.41 0.41 0.41 0.40 0.41 0.41 0.41 0.41 0.42 0.42 0.44 0.43 0.40 0.35 0.33 0.33 0.40 0.41 0.43 0.42 0.40 0.41 0.43 0.45 0.48 0.50 0.49 0.50 0.52 0.52 0.52 0.52 0.46 0.32 0.27 0.30 0.32 0.31 0.31 0.30 0.31 0.30
0.33 0.33 0.35 0.34 0.34 0.35 0.36 0.33 0.31 0.29 0.32 0.35 0.36 0.37 0.38 0.39 0.40 0.41 0.45 0.47 0.44 0.45 0.48 0.48 0.49 0.52 0.54 0.54 0.53 0.53 0.52 0.52 0.53 0.48 0.39 0.32 0.29 0.32 0.31 0.30 0.30 0.30 0.31 0.27
0.31 0.30 0.31 0.30 0.30 0.29 0.29 0.32 0.32 0.31 0.31 0.30 0.30 0.33 0.34 0.34 0.35 0.36 0.37 0.42 0.48 0.50 0.53 0.56 0.55 0.56 0.56 0.56 0.55 0.54 0.54 0.51 0.47 0.43 0.42 0.34 0.30 0.30 0.30 0.30 0.30 0.30 0.31 0.28
0.33 0.33 0.32 0.30 0.26 0.24 0.22 0.22 0.24 0.26 0.28 0.30 0.30 0.28 0.26 0.25 0.26 0.28 0.32 0.38 0.39 0.42 0.49 0.52 0.54 0.54 0.53 0.52 0.51 0.50 0.48 0.47 0.43 0.38 0.37 0.37 0.30 0.30 0.30 0.31 0.31 0.30 0.31 0.28
0.32 0.31 0.30 0.29 0.28 0.26 0.22 0.20 0.19 0.21 0.24 0.26 0.25 0.23 0.22 0.22 0.24 0.25 0.27 0.28 0.30 0.35 0.38 0.46 0.50 0.51 0.51 0.51 0.50 0.47 0.46 0.43 0.40 0.36 0.38 0.39 0.34 0.31 0.31 0.33 0.30 0.31 0.31 0.28
0.28 0.28 0.27 0.26 0.27 0.25 0.21 0.19 0.18 0.17 0.18 0.20 0.20 0.20 0.21 0.21 0.23 0.24 0.26 0.25 0.28 0.30 0.35 0.40 0.39 0.44 0.48 0.49 0.50 0.48 0.47 0.43 0.41 0.40 0.32 0.32 0.34 0.31 0.33 0.34 0.31 0.31 0.31 0.28
0.24 0.23 0.22 0.21 0.21 0.23 0.23 0.22 0.19 0.17 0.17 0.19 0.20 0.21 0.24 0.26 0.27 0.29 0.28 0.26 0.28 0.36 0.35 0.34 0.41 0.39 0.43 0.45 0.46 0.47 0.47 0.45 0.44 0.38 0.31 0.31 0.35 0.35 0.35 0.33 0.30 0.32 0.30 0.27
0.18 0.18 0.17 0.18 0.18 0.16 0.17 0.18 0.19 0.19 0.19 0.21 0.22 0.25 0.27 0.28 0.31 0.33 0.35 0.34 0.35 0.37 0.37 0.34 0.34 0.40 0.45 0.45 0.47 0.47 0.47 0.45 0.43 0.41 0.35 0.32 0.36 0.36 0.34 0.32 0.30 0.31 0.30 0.27
0.14 0.15 0.15 0.15 0.15 0.15 0.16 0.17 0.18 0.21 0.21 0.23 0.25 0.28 0.32 0.34 0.36 0.35 0.31 0.38 0.39 0.39 0.38 0.36 0.33 0.35 0.42 0.47 0.47 0.46 0.48 0.46 0.43 0.43 0.39 0.35 0.38 0.36 0.35 0.32 0.31 0.31 0.29 0.27
0.16 0.16 0.16 0.17 0.18 0.18 0.16 0.17 0.20 0.22 0.25 0.28 0.32 0.39 0.41 0.39 0.39 0.43 0.43 0.42 0.42 0.41 0.39 0.37 0.37 0.35 0.39 0.43 0.46 0.48 0.51 0.49 0.45 0.44 0.41 0.40 0.41 0.37 0.37 0.33 0.32 0.31 0.29 0.27
0.17 0.18 0.19 0.20 0.20 0.20 0.20 0.22 0.24 0.25 0.28 0.35 0.41 0.46 0.48 0.49 0.45 0.46 0.46 0.45 0.44 0.43 0.41 0.40 0.40 0.42 0.40 0.40 0.44 0.49 0.53 0.51 0.49 0.46 0.43 0.44 0.41 0.39 0.36 0.34 0.33 0.30 0.29 0.27
0.20 0.23 0.27 0.28 0.28 0.27 0.27 0.28 0.27 0.28 0.34 0.40 0.43 0.46 0.46 0.48 0.49 0.48 0.47 0.48 0.48 0.47 0.44 0.43 0.42 0.43 0.45 0.47 0.51 0.51 0.51 0.52 0.50 0.48 0.46 0.45 0.42 0.40 0.36 0.35 0.32 0.30 0.29 0.26
0.27 0.32 0.32 0.32 0.33 0.33 0.32 0.32 0.31 0.33 0.43 0.45 0.42 0.42 0.43 0.44 0.47 0.48 0.47 0.47 0.47 0.47 0.47 0.46 0.43 0.43 0.44 0.45 0.46 0.46 0.48 0.50 0.50 0.49 0.47 0.45 0.43 0.40 0.37 0.34 0.31 0.30 0.28 0.26
Wind_Speed
8 11 10 14 14 11 13 14 11 16 15 22 22 22 22 21 21 21 21 19 19 20 20 21 23 24 25 25 24 24 24 24 24 23 23 23 24 24 25 25 25 24 24 24
10 12 11 13 16 16 17 17 19 22 24 23 20 20 21 22 22 21 20 19 20 20 20 23 24 24 24 24 25 25 25 25 25 24 25 25 25 25 25 26 25 25 24 24
9 8 14 12 8 9 8 11 12 15 16 17 18 21 22 22 22 21 21 20 21 21 23 25 25 24 24 24 24 25 26 26 26 26 26 26 25 26 26 25 25 25 25 25
10 11 7 8 10 9 11 14 16 18 16 17 21 22 24 22 23 22 20 21 21 23 25 25 25 26 26 25 26 26 27 26 26 27 27 26 26 26 26 26 25 25 25 26
8 9 15 8 7 8 9 16 11 13 16 20 24 24 24 23 23 23 22 23 24 26 26 27 27 28 28 28 27 27 28 28 27 27 27 27 26 26 26 26 26 26 26 27
10 11 11 12 13 12 13 14 12 14 20 24 25 26 25 26 26 25 25 25 27 28 28 29 30 30 30 30 29 29 29 28 28 28 28 27 27 26 27 27 26 26 27 27
14 14 16 15 12 13 14 15 19 23 26 26 24 26 31 30 30 30 30 30 31 32 31 32 32 32 32 31 31 30 29 29 28 28 28 28 27 27 27 26 26 27 27 27
12 13 15 12 14 15 20 23 26 27 28 29 31 32 33 33 32 32 32 34 35 35 35 35 34 34 34 33 32 31 30 29 29 28 28 28 28 27 27 26 26 27 27 27
15 16 18 20 21 23 27 27 28 31 33 34 36 36 37 35 36 35 35 37 37 36 37 37 36 36 36 35 33 31 30 30 30 29 29 28 28 27 28 27 26 26 27 27
20 19 21 25 28 27 30 33 37 38 38 36 38 38 39 39 38 38 38 38 39 38 39 39 39 39 38 36 34 32 31 31 30 29 29 29 29 28 28 27 26 26 27 27
27 29 29 26 31 35 37 37 37 36 37 40 40 40 40 41 40 40 40 40 40 40 41 41 41 40 38 37 35 33 32 31 30 30 30 30 29 28 28 28 27 26 27 27
26 26 29 33 34 34 33 34 35 36 37 38 39 40 41 41 41 41 42 42 43 43 43 42 41 41 39 37 35 33 32 31 31 31 31 30 28 28 28 27 27 27 27 27
29 31 32 30 31 30 33 35 36 37 38 38 38 38 40 41 41 43 43 43 43 43 43 43 42 40 38 34 33 32 30 30 30 30 29 28 27 27 27 26 27 27 27 27
29 28 27 28 30 34 34 35 36 36 36 37 37 37 38 39 40 40 40 40 40 40 40 39 37 35 32 31 30 29 29 30 29 28 27 27 26 26 26 26 25 26 26 26
24 26 28 31 33 34 35 36 37 38 37 38 38 39 39 40 39 39 37 37 37 37 36 35 32 31 29 28 27 28 29 27 26 25 26 25 25 25 25 25 25 25 26 26
27 28 29 31 34 36 37 39 39 40 40 40 41 40 40 40 40 40 40 38 37 36 35 33 31 29 27 26 26 26 25 24 24 24 23 24 24 25 25 25 25 25 25 25
29 31 33 35 37 39 40 41 42 44 44 44 44 45 44 44 43 41 40 38 36 35 32 28 26 25 23 22 22 22 22 21 22 22 24 24 24 25 25 25 25 24 24 24
32 35 36 38 41 43 44 45 46 46 45 46 47 47 47 45 45 44 43 40 38 36 33 31 28 26 25 24 23 23 23 23 23 24 24 24 25 25 25 25 24 24 24 24
37 39 41 43 45 46 48 49 49 49 49 48 48 49 47 46 45 43 41 40 38 38 37 35 33 30 28 27 26 25 24 24 25 25 25 25 25 25 24 24 23 23 23 23
43 45 47 49 49 50 52 52 52 52 51 50 49 49 47 45 43 42 41 40 39 39 38 37 36 34 33 31 29 28 28 28 27 27 25 25 25 24 24 24 23 23 22 22
48 50 51 53 54 55 54 55 55 54 53 50 49 48 46 45 43 42 41 40 39 39 39 38 36 34 34 33 32 31 30 28 28 27 27 26 26 25 24 23 22 22 22 22
53 54 56 57 58 59 59 58 56 55 53 52 50 48 46 45 44 43 42 41 41 40 38 36 36 35 34 33 32 30 30 29 28 28 28 27 26 25 24 23 22 21 21 21
57 57 58 59 58 58 57 55 54 52 51 50 48 46 45 44 43 41 40 38 38 37 36 35 34 34 34 32 31 30 29 28 28 28 28 27 26 25 23 22 21 21 21 20
56 57 57 57 56 55 55 53 51 49 48 46 44 43 41 41 40 38 39 38 38 37 35 33 32 31 31 30 30 28 27 27 27 26 26 26 25 24 22 21 21 20 20 20
54 55 55 54 53 51 50 49 47 45 42 40 37 36 36 35 35 35 35 35 35 34 33 32 31 30 29 28 29 29 29 28 27 25 24 24 23 22 21 21 20 20 20 19
52 51 50 49 48 46 45 42 40 38 36 34 33 32 33 34 35 35 35 35 33 32 31 30 29 28 28 29 29 29 28 28 27 25 24 23 22 21 20 20 20 19 19 18
45 44 43 44 42 40 38 36 35 32 31 30 31 32 33 33 34 35 35 33 32 31 30 29 28 28 27 27 26 27 27 27 26 24 23 21 20 20 20 19 19 19 18 18
Wind_Direction
270 271 273 272 271 266 256 261 268 288 287 297 306 307 309 310 309 307 305 302 296 296 298 300 300 296 290 286 285 287 289 291 293 296 299 302 306 310 313 315 316 317 317 319
285 283 276 280 273 263 264 265 271 280 289 298 301 311 313 312 309 305 305 303 302 300 300 302 303 301 296 288 284 285 286 288 291 293 295 299 302 305 309 312 314 315 315 316
281 301 296 289 279 256 275 277 275 278 287 302 310 317 317 314 310 304 301 300 301 298 301 303 303 303 300 293 288 286 285 286 287 291 293 294 298 302 306 309 310 312 313 314
282 308 294 276 290 283 271 283 274 287 291 297 305 310 313 314 308 306 299 300 300 303 304 304 303 301 299 295 288 286 285 285 285 288 291 292 294 298 302 305 307 309 311 312
277 284 290 284 285 290 286 304 295 277 293 302 308 310 309 312 312 303 300 300 301 303 304 304 302 301 299 296 291 285 284 283 283 287 289 290 292 295 299 302 304 307 309 311
278 282 276 278 287 287 294 296 297 293 301 305 309 308 309 309 310 305 300 299 302 303 303 303 303 301 299 296 291 286 283 282 283 285 287 288 289 293 296 299 301 305 308 309
266 277 279 277 279 292 295 288 301 301 303 305 303 302 306 306 304 301 298 298 301 300 299 300 300 300 299 297 292 287 284 281 282 284 286 287 289 292 293 296 299 303 306 308
266 267 276 267 293 287 291 296 299 301 303 302 301 303 304 303 304 303 299 298 300 298 297 299 299 298 298 295 293 288 283 280 281 282 284 285 288 290 293 294 297 302 305 306
260 270 278 283 289 293 296 295 298 299 300 299 300 301 301 300 301 301 300 300 300 298 298 298 297 296 295 294 290 286 281 279 279 280 283 284 286 288 291 292 295 300 303 305
279 286 282 287 291 291 293 294 298 298 298 299 299 301 300 300 299 298 299 299 299 298 297 297 296 295 293 291 288 283 280 278 278 278 281 282 285 288 289 291 293 298 302 304
279 285 290 290 293 296 296 297 297 298 298 298 298 299 300 299 299 299 299 300 299 298 297 296 296 293 291 289 285 281 278 277 277 278 280 282 285 285 286 289 291 296 300 303
281 285 287 290 294 297 299 301 302 301 302 301 299 298 300 300 299 298 299 299 299 298 297 296 295 293 290 286 282 278 277 276 276 278 280 283 283 284 286 288 290 294 298 301
284 287 288 289 294 299 303 304 304 304 303 303 304 303 302 301 301 301 300 300 299 298 298 297 295 292 289 284 279 277 276 275 276 277 280 281 283 282 285 288 289 293 297 301
285 287 288 290 294 300 303 305 306 306 306 307 307 307 307 306 305 304 304 304 303 303 301 300 297 293 289 283 280 277 276 276 277 278 279 280 282 283 284 286 289 293 297 301
290 290 291 294 298 300 303 305 306 307 307 308 308 307 309 309 308 307 306 307 308 306 305 303 300 296 290 284 279 277 279 277 277 277 278 280 282 284 282 284 288 292 297 301
293 295 296 297 300 303 305 308 307 307 307 307 308 308 308 307 306 305 304 305 305 306 306 302 297 296 290 284 279 278 278 275 276 277 278 282 283 284 283 284 287 291 296 299
294 298 299 302 304 306 306 305 304 304 304 304 303 303 303 303 303 304 303 301 301 303 306 303 299 298 293 287 281 280 278 277 274 277 284 283 285 284 283 284 286 289 294 298
290 292 295 297 299 301 303 304 304 303 302 302 302 302 302 301 299 299 299 298 296 295 294 295 295 292 290 286 283 282 279 277 277 281 285 286 285 282 283 283 283 287 292 297
292 293 294 296 298 299 302 304 304 303 302 302 301 301 300 299 298 297 296 295 293 290 289 286 285 283 284 283 278 279 279 279 280 282 285 287 285 282 282 281 281 285 290 295
293 294 296 297 298 299 300 301 302 301 301 300 300 299 298 297 297 296 295 292 292 290 288 284 281 277 277 276 274 278 279 278 278 278 282 286 286 282 280 279 280 283 287 293
295 296 296 297 297 297 297 298 299 298 298 297 296 296 295 296 296 295 294 293 294 292 287 283 278 275 273 272 271 274 275 277 275 275 278 282 285 280 279 278 277 280 286 292
295 295 295 296 296 295 296 297 296 295 294 293 293 293 292 293 294 294 292 291 293 292 290 284 278 272 270 266 268 270 273 273 274 275 276 277 281 278 277 275 275 279 284 289
296 297 297 297 297 297 297 296 295 294 292 292 291 291 290 291 293 294 293 293 292 291 290 286 279 271 267 264 265 267 270 272 273 275 274 274 276 273 273 272 274 276 282 287
297 297 296 297 297 296 296 296 295 293 292 291 290 290 290 291 292 292 291 292 292 291 289 286 280 273 265 262 262 263 267 272 273 275 273 271 271 269 268 270 271 275 281 284
298 298 298 298 297 296 295 295 295 294 293 291 290 290 291 293 292 295 294 294 292 290 288 287 278 272 267 263 259 262 267 269 271 271 272 271 267 265 266 267 269 273 278 282
300 300 299 299 299 297 296 296 295 294 293 291 291 292 293 294 294 295 295 294 293 291 287 285 280 272 266 262 263 264 265 265 266 267 268 267 265 262 263 264 268 272 276 280
301 302 302 301 300 299 296 295 294 293 293 292 293 295 296 296 297 296 295 293 291 290 288 284 278 271 266 263 263 263 263 264 261 262 262 262 261 260 260 263 267 271 275 279